Date Time,Air Temp,Sky Temp,Clarity,Light Level,Rain Sensor,Readings
2009-10-01 00:00:03,24.5,2.0,22.6,0.2,2.3,111
2009-10-01 00:05:03,24.6,3.4,21.3,0.2,2.3,111
2009-10-01 00:10:03,24.7,4.2,20.5,0.2,2.3,112
2009-10-01 00:15:03,24.8,4.5,20.3,0.2,2.3,112
2009-10-01 00:20:03,24.8,4.4,20.4,0.2,2.3,112
2009-10-01 00:25:03,24.9,4.3,20.6,0.2,2.3,112
2009-10-01 00:30:03,25.0,4.4,20.6,0.2,2.3,112
2009-10-01 00:35:03,25.0,4.5,20.5,0.1,2.3,112
2009-10-01 00:40:03,24.9,4.6,20.3,0.1,2.3,111
2009-10-01 00:45:03,24.1,4.7,19.4,0.1,2.3,112
2009-10-01 00:50:03,21.3,5.3,16.0,0.1,2.3,112
2009-10-01 00:55:03,20.0,5.5,14.5,0.1,2.3,112
2009-10-01 01:00:03,19.9,5.6,14.3,0.1,2.3,112
2009-10-01 01:05:03,19.8,5.6,14.2,0.1,2.3,111
2009-10-01 01:10:03,19.4,5.7,13.6,0.1,2.4,112
2009-10-01 01:15:03,19.7,5.5,14.2,0.1,2.4,112
2009-10-01 01:20:03,19.7,5.5,14.2,0.1,2.3,112
2009-10-01 01:25:03,19.7,5.4,14.2,0.1,2.3,112
2009-10-01 01:30:03,19.7,5.0,14.7,0.1,2.3,112
2009-10-01 01:35:03,19.6,5.3,14.3,0.1,2.3,112
2009-10-01 01:40:03,19.6,4.7,14.9,0.1,2.3,112
2009-10-01 01:45:03,19.5,3.1,16.4,0.1,2.3,111
2009-10-01 01:50:03,19.5,2.8,16.6,0.1,2.3,111
2009-10-01 01:55:03,19.4,3.3,16.1,0.1,2.3,111
2009-10-01 02:00:03,19.5,4.2,15.3,0.1,2.3,112
2009-10-01 02:05:03,19.5,3.2,16.3,0.1,2.3,111
2009-10-01 02:10:03,19.5,2.0,17.5,0.1,2.3,111
2009-10-01 02:15:03,19.9,-0.4,20.3,0.1,2.3,111
2009-10-01 02:20:03,22.9,-1.1,24.0,0.1,2.3,111
2009-10-01 02:25:03,23.9,0.6,23.3,0.1,2.3,112
2009-10-01 02:30:03,24.2,-0.9,25.2,0.1,2.3,111
2009-10-01 02:35:03,24.5,-0.9,25.4,0.1,2.3,112
2009-10-01 02:40:03,24.6,-1.7,26.3,0.1,2.3,112
2009-10-01 02:45:03,24.6,-0.9,25.5,0.1,2.3,111
2009-10-01 02:50:03,24.6,-0.8,25.4,0.1,2.3,112
2009-10-01 02:55:03,24.5,-0.6,25.1,0.1,2.3,112
2009-10-01 03:00:03,24.4,-0.0,24.4,0.1,2.3,112
2009-10-01 03:05:03,24.4,0.6,23.8,0.2,2.3,111
2009-10-01 03:10:03,24.5,2.1,22.4,0.1,2.3,111
2009-10-01 03:15:03,24.6,2.3,22.3,0.1,2.3,111
2009-10-01 03:20:03,24.7,0.0,24.7,0.1,2.3,112
2009-10-01 03:25:03,24.7,-2.0,26.8,0.0,2.3,111
2009-10-01 03:30:03,24.7,-3.3,28.0,0.0,2.3,112
2009-10-01 03:35:03,24.7,-5.7,30.4,0.0,2.3,112
2009-10-01 03:40:03,24.7,-5.9,30.5,0.0,2.3,111
2009-10-01 03:45:03,24.7,-6.0,30.6,0.0,2.3,111
2009-10-01 03:50:03,24.6,-5.4,29.9,0.0,2.3,112
2009-10-01 03:55:03,24.5,-6.4,30.9,0.0,2.3,111
2009-10-01 04:00:03,24.4,-9.8,34.2,0.0,2.3,112
2009-10-01 04:05:03,24.3,-12.2,36.5,0.0,2.3,111
2009-10-01 04:10:03,24.1,-12.8,37.0,0.0,2.3,112
2009-10-01 04:15:03,24.1,-13.0,37.0,0.0,2.3,112
2009-10-01 04:20:03,24.0,-13.7,37.7,0.0,2.3,111
2009-10-01 04:25:03,24.0,-14.1,38.0,0.0,2.3,111
2009-10-01 04:30:03,23.9,-13.8,37.6,0.0,2.3,112
2009-10-01 04:35:03,23.8,-12.8,36.6,0.0,2.3,111
2009-10-01 04:40:03,23.8,-13.5,37.3,0.0,2.3,111
2009-10-01 04:45:03,23.8,-14.1,37.9,0.0,2.3,112
2009-10-01 04:50:03,23.7,-13.9,37.6,0.0,2.3,111
2009-10-01 04:55:03,23.5,-13.9,37.5,0.0,2.3,111
2009-10-01 05:00:03,23.4,-13.5,36.8,0.0,2.3,112
2009-10-01 05:05:03,23.4,-13.4,36.8,0.0,2.3,112
2009-10-01 05:10:03,23.4,-13.6,37.0,0.0,2.3,112
2009-10-01 05:15:03,23.4,-12.9,36.2,0.0,2.3,111
2009-10-01 05:20:03,23.5,-12.5,36.0,0.0,2.3,111
2009-10-01 05:25:03,23.6,-10.4,34.0,0.0,2.3,112
2009-10-01 05:30:03,23.7,-6.9,30.6,0.0,2.3,111
2009-10-01 05:35:03,23.7,-0.1,23.8,0.0,2.3,111
2009-10-01 05:40:03,22.5,3.8,18.8,0.0,2.3,112
2009-10-01 05:45:03,19.7,4.9,14.9,0.0,2.2,112
2009-10-01 05:50:03,19.1,5.4,13.6,0.0,2.2,112
2009-10-01 05:55:03,19.0,5.7,13.3,0.0,2.3,111
2009-10-01 06:00:03,19.0,5.6,13.5,0.1,2.3,112
2009-10-01 06:05:03,19.1,5.1,14.0,0.1,2.2,111
2009-10-01 06:10:03,19.2,5.8,13.4,0.2,2.0,112
2009-10-01 06:15:03,19.3,5.9,13.4,0.3,3.0,111
2009-10-01 06:20:03,19.1,5.5,13.6,0.7,2.3,112
2009-10-01 06:25:03,19.0,4.8,14.2,1.5,2.3,111
2009-10-01 06:30:03,19.0,4.5,14.5,3.2,2.3,112
2009-10-01 06:35:03,19.1,5.1,14.0,6.3,2.3,112
2009-10-01 06:40:03,18.8,4.7,14.1,11.0,2.3,112
2009-10-01 06:45:03,19.2,3.9,15.3,17.5,2.3,111
2009-10-01 06:50:03,19.2,3.2,16.0,23.1,2.3,111
2009-10-01 06:55:03,19.2,2.6,16.7,26.8,2.3,112
2009-10-01 07:00:03,19.1,1.8,17.3,29.1,2.3,111
2009-10-01 07:05:03,19.0,1.1,17.9,30.3,2.3,111
2009-10-01 07:10:03,18.8,0.6,18.2,31.0,2.3,112
2009-10-01 07:15:03,18.9,0.5,18.5,31.4,2.3,111
2009-10-01 07:20:03,18.9,0.6,18.3,31.7,2.3,111
2009-10-01 07:25:03,19.2,0.4,18.8,31.8,2.3,111
2009-10-01 07:30:03,19.0,2.5,16.6,32.0,2.3,112
2009-10-01 07:35:03,19.0,1.6,17.3,32.0,2.3,110
2009-10-01 07:40:03,19.0,2.1,16.9,32.1,2.3,112
2009-10-01 07:45:03,19.1,3.8,15.3,32.1,2.3,111
2009-10-01 07:50:03,19.1,2.2,16.9,32.2,2.3,111
2009-10-01 07:55:03,19.2,1.5,17.6,32.2,2.3,111
2009-10-01 08:00:03,19.6,0.5,19.1,32.3,2.1,112
2009-10-01 08:05:03,19.4,2.9,16.5,32.3,2.0,111
2009-10-01 08:10:03,19.4,3.0,16.4,32.3,2.0,112
2009-10-01 08:15:03,19.5,3.7,15.8,32.3,2.1,111
2009-10-01 08:20:03,19.5,3.7,15.8,32.4,2.2,112
2009-10-01 08:25:03,19.6,3.6,16.0,32.4,2.3,111
2009-10-01 08:30:03,19.6,3.0,16.7,32.4,2.3,111
2009-10-01 08:35:03,19.9,0.4,19.6,32.4,2.3,112
2009-10-01 08:40:03,22.9,0.6,22.3,32.4,2.3,111
2009-10-01 08:45:03,24.2,2.2,22.0,32.4,2.3,111
2009-10-01 08:50:03,24.8,3.4,21.4,32.5,2.3,111
2009-10-01 08:55:03,23.9,4.2,19.6,32.5,2.3,111
2009-10-01 09:00:03,22.0,3.8,18.1,32.5,2.3,111
2009-10-01 09:05:03,21.6,1.7,19.9,32.5,2.3,112
2009-10-01 09:10:03,24.2,0.2,24.0,32.5,2.3,111
2009-10-01 09:15:03,25.2,-1.9,27.1,32.5,2.3,112
2009-10-01 09:20:03,25.4,0.1,25.3,32.5,2.3,111
2009-10-01 09:25:03,25.6,-3.7,29.3,32.5,2.3,111
2009-10-01 09:30:03,25.7,-7.6,33.3,32.5,2.3,112
2009-10-01 09:35:03,25.8,-4.6,30.4,32.5,2.3,111
2009-10-01 09:40:03,25.8,-6.1,32.0,32.5,2.3,112
2009-10-01 09:45:03,25.9,-8.7,34.5,32.5,2.3,112
2009-10-01 09:50:03,25.8,-10.4,36.2,32.5,2.3,112
2009-10-01 09:55:03,25.7,-10.3,36.1,32.5,2.3,111
2009-10-01 10:00:03,25.8,-11.1,36.9,32.5,2.3,112
2009-10-01 10:05:03,25.9,-11.9,37.8,32.5,2.3,111
2009-10-01 10:10:03,25.9,-10.9,36.8,32.5,2.3,112
2009-10-01 10:15:03,26.1,-10.7,36.8,32.5,2.3,111
2009-10-01 10:20:03,26.2,-6.4,32.6,32.5,2.3,112
2009-10-01 10:25:03,26.6,-6.4,33.0,32.5,2.3,112
2009-10-01 10:30:03,27.2,-6.3,33.5,32.6,2.0,111
2009-10-01 10:35:03,28.0,-7.8,35.8,32.6,1.2,111
2009-10-01 10:40:03,27.7,-7.0,34.7,32.5,1.1,112
2009-10-01 10:45:03,27.6,1.5,26.1,32.6,1.5,111
2009-10-01 10:50:03,28.3,3.6,24.7,32.6,1.1,112
2009-10-01 10:55:03,28.0,4.8,23.1,32.6,1.1,112
2009-10-01 11:00:03,27.7,6.2,21.4,32.5,1.0,111
2009-10-01 11:05:03,27.3,6.5,20.8,32.5,1.2,112
2009-10-01 11:10:03,27.0,6.4,20.6,32.5,1.5,111
2009-10-01 11:15:03,26.9,6.1,20.8,32.5,1.5,112
2009-10-01 11:20:03,26.9,5.6,21.3,32.5,1.2,112
2009-10-01 11:25:03,26.9,5.0,22.0,32.6,1.3,111
2009-10-01 11:30:03,27.1,5.6,21.5,32.6,1.6,112
2009-10-01 11:35:03,27.2,3.5,23.7,32.6,1.5,111
2009-10-01 11:40:03,27.2,4.5,22.8,32.6,1.1,112
2009-10-01 11:45:03,27.2,5.8,21.5,32.6,1.1,111
2009-10-01 11:50:03,27.1,6.1,21.0,32.6,1.2,112
2009-10-01 11:55:03,26.9,5.0,21.9,32.6,1.6,111
2009-10-01 12:00:03,27.3,4.0,23.3,32.6,1.2,112
2009-10-01 12:05:03,27.5,4.9,22.6,32.6,1.1,112
2009-10-01 12:10:03,27.7,6.0,21.7,32.5,1.1,111
2009-10-01 12:15:03,27.4,6.4,21.0,32.5,1.1,111
2009-10-01 12:20:03,27.2,6.0,21.2,32.5,1.2,111
2009-10-01 12:25:03,27.1,6.6,20.5,32.6,1.7,111
2009-10-01 12:30:03,25.5,6.7,18.8,32.5,1.5,111
2009-10-01 12:35:03,23.3,6.6,16.7,32.6,2.3,112
2009-10-01 12:40:03,22.5,6.4,16.1,32.6,2.3,111
2009-10-01 12:45:03,23.2,2.0,21.1,32.6,2.3,112
2009-10-01 12:50:03,26.2,-4.1,30.2,32.6,2.0,111
2009-10-01 12:55:03,28.1,-9.5,37.6,32.6,1.1,112
2009-10-01 13:00:03,29.2,0.3,28.9,32.6,1.3,111
2009-10-01 13:05:03,30.2,4.0,26.3,32.6,1.8,112
2009-10-01 13:10:03,29.4,2.8,26.6,32.6,1.7,111
2009-10-01 13:15:03,28.9,-5.0,34.0,32.6,1.5,112
2009-10-01 13:20:03,30.2,0.4,29.8,32.6,1.9,111
2009-10-01 13:25:03,31.1,1.7,29.3,32.6,2.3,111
2009-10-01 13:30:03,30.1,4.9,25.2,32.6,2.2,111
2009-10-01 13:35:03,29.2,5.1,24.1,32.6,1.9,112
2009-10-01 13:40:03,28.4,-1.2,29.6,32.6,1.6,111
2009-10-01 13:45:03,28.8,-7.8,36.6,32.6,1.6,112
2009-10-01 13:50:03,30.0,-11.0,41.0,32.6,2.0,112
2009-10-01 13:55:03,30.6,-12.7,43.3,32.6,2.2,111
2009-10-01 14:00:03,31.0,-12.4,43.4,32.6,2.3,111
2009-10-01 14:05:03,31.2,-12.0,43.2,32.6,2.3,112
2009-10-01 14:10:03,31.4,-11.6,43.1,32.6,2.4,111
2009-10-01 14:15:03,31.8,-7.4,39.1,32.6,2.6,112
2009-10-01 14:20:03,30.6,-12.1,42.7,32.6,2.5,111
2009-10-01 14:25:03,30.5,-11.3,41.8,32.6,2.3,112
2009-10-01 14:30:03,31.3,-9.7,41.0,32.6,2.5,111
2009-10-01 14:35:03,31.6,-10.1,41.7,32.6,2.6,112
2009-10-01 14:40:03,32.2,-12.5,44.7,32.6,2.5,111
2009-10-01 14:45:03,32.3,-10.9,43.2,32.6,2.5,112
2009-10-01 14:50:03,32.3,-9.8,42.1,32.6,2.4,112
2009-10-01 14:55:03,32.3,-9.4,41.7,32.6,2.4,111
2009-10-01 15:00:03,32.3,-9.8,42.0,32.6,2.3,112
2009-10-01 15:05:03,32.0,-11.9,43.9,32.6,2.3,111
2009-10-01 15:10:03,32.1,-10.3,42.4,32.6,2.4,112
2009-10-01 15:15:03,32.2,-11.0,43.2,32.6,2.3,111
2009-10-01 15:20:03,31.6,-9.3,41.0,32.6,2.3,113
2009-10-01 15:25:03,31.8,-13.2,44.9,32.6,2.4,111
2009-10-01 15:30:03,31.6,-12.3,43.9,32.6,2.6,111
2009-10-01 15:35:03,31.5,-10.8,42.3,32.6,2.7,112
2009-10-01 15:40:03,31.6,-9.8,41.4,32.6,2.7,112
2009-10-01 15:45:03,31.3,-11.0,42.3,32.6,2.6,112
2009-10-01 15:50:03,31.1,-10.2,41.2,32.6,2.7,112
2009-10-01 15:55:03,31.2,-10.2,41.4,32.6,2.7,112
2009-10-01 16:00:03,31.3,-9.9,41.3,32.6,2.7,112
2009-10-01 16:05:03,31.4,-10.3,41.7,32.6,2.6,111
2009-10-01 16:10:03,31.6,-11.4,42.9,32.6,2.4,112
2009-10-01 16:15:03,31.7,-12.0,43.7,32.6,2.3,112
2009-10-01 16:20:03,31.6,-10.7,42.3,32.6,2.3,112
2009-10-01 16:25:03,31.4,-10.3,41.7,32.6,2.3,112
2009-10-01 16:30:03,31.2,-10.9,42.1,32.6,2.5,111
2009-10-01 16:35:03,30.8,-11.4,42.2,32.6,2.6,112
2009-10-01 16:40:03,30.5,-11.0,41.5,32.6,2.6,111
2009-10-01 16:45:03,30.5,-10.9,41.3,32.6,2.6,112
2009-10-01 16:50:03,30.4,-11.0,41.5,32.6,2.6,112
2009-10-01 16:55:03,30.5,-11.2,41.6,32.6,2.5,111
2009-10-01 17:00:03,30.3,-11.0,41.3,32.6,2.5,112
2009-10-01 17:05:03,30.5,-12.2,42.7,32.6,2.5,111
2009-10-01 17:10:03,30.5,-11.5,42.0,32.6,2.5,112
2009-10-01 17:15:03,30.4,-11.5,41.9,32.6,2.4,111
2009-10-01 17:20:03,30.2,-12.5,42.6,32.6,2.4,111
2009-10-01 17:25:03,29.9,-11.9,41.7,32.6,2.3,111
2009-10-01 17:30:03,29.9,-12.4,42.2,32.6,2.3,112
2009-10-01 17:35:03,29.7,-12.9,42.6,32.6,2.3,111
2009-10-01 17:40:03,29.3,-12.7,42.1,32.6,2.3,111
2009-10-01 17:45:03,29.1,-12.8,41.9,32.6,2.2,112
2009-10-01 17:50:03,29.0,-13.0,42.0,32.6,2.1,112
2009-10-01 17:55:03,28.8,-13.2,42.0,32.6,2.0,111
2009-10-01 18:00:03,28.5,-13.6,42.2,32.5,1.8,112
2009-10-01 18:05:03,28.3,-13.8,42.1,32.5,1.7,112
2009-10-01 18:10:03,27.9,-14.1,42.0,32.5,1.5,111
2009-10-01 18:15:03,27.4,-14.2,41.6,32.5,1.4,112
2009-10-01 18:20:03,27.1,-14.2,41.3,32.4,1.1,111
2009-10-01 18:25:03,26.8,-14.4,41.1,32.3,1.1,112
2009-10-01 18:30:03,26.5,-14.7,41.2,32.3,1.4,112
2009-10-01 18:35:03,26.2,-14.8,41.0,32.1,1.9,111
2009-10-01 18:40:03,25.8,-14.9,40.7,31.8,2.3,112
2009-10-01 18:45:03,25.5,-14.9,40.4,31.4,2.3,111
2009-10-01 18:50:03,25.2,-14.8,40.0,30.8,2.3,112
2009-10-01 18:55:03,25.0,-14.9,39.8,29.7,2.3,111
2009-10-01 19:00:03,24.8,-14.9,39.7,27.8,2.3,111
2009-10-01 19:05:03,24.5,-14.8,39.3,24.2,2.3,111
2009-10-01 19:10:03,24.3,-14.7,38.9,19.0,2.3,111
2009-10-01 19:15:03,24.2,-14.5,38.7,13.1,2.3,111
2009-10-01 19:20:03,24.1,-14.5,38.6,8.0,2.3,111
2009-10-01 19:25:03,24.0,-14.6,38.6,4.4,2.3,112
2009-10-01 19:30:03,23.9,-14.7,38.6,2.3,2.3,111
2009-10-01 19:35:03,23.7,-14.6,38.3,1.2,2.3,112
2009-10-01 19:40:03,23.5,-14.7,38.3,0.7,2.3,111
2009-10-01 19:45:03,23.5,-15.2,38.8,0.3,2.3,112
2009-10-01 19:50:03,23.5,-15.5,39.1,0.2,2.3,112
2009-10-01 19:55:03,23.5,-15.7,39.2,0.1,2.3,111
2009-10-01 20:00:03,23.5,-15.8,39.2,0.1,2.3,112
2009-10-01 20:05:03,23.4,-16.0,39.4,0.1,2.3,111
2009-10-01 20:10:03,23.3,-16.0,39.4,0.0,2.3,112
2009-10-01 20:15:03,23.2,-16.0,39.1,0.0,2.3,111
2009-10-01 20:20:03,23.1,-16.0,39.1,0.0,2.3,112
2009-10-01 20:25:03,22.9,-16.1,39.0,0.0,2.3,111
2009-10-01 20:30:03,22.9,-16.0,38.9,0.0,2.3,111
2009-10-01 20:35:03,22.8,-16.0,38.8,0.1,2.3,111
2009-10-01 20:40:03,22.7,-16.1,38.8,0.1,2.3,112
2009-10-01 20:45:03,22.7,-16.2,38.9,0.1,2.3,111
2009-10-01 20:50:03,22.7,-16.1,38.8,0.2,2.3,112
2009-10-01 20:55:03,22.8,-16.0,38.8,0.2,2.3,111
2009-10-01 21:00:03,22.8,-16.1,38.9,0.2,2.3,112
2009-10-01 21:05:03,22.8,-16.2,39.0,0.2,2.3,111
2009-10-01 21:10:03,22.9,-16.3,39.1,0.2,2.3,111
2009-10-01 21:15:03,23.0,-16.3,39.3,0.3,2.2,112
2009-10-01 21:20:03,23.1,-16.5,39.6,0.3,2.3,111
2009-10-01 21:25:03,22.9,-16.7,39.6,0.3,2.2,112
2009-10-01 21:30:03,22.6,-16.6,39.3,0.3,2.3,112
2009-10-01 21:35:03,22.5,-16.7,39.2,0.3,2.3,111
2009-10-01 21:40:03,22.5,-16.6,39.1,0.3,2.3,112
2009-10-01 21:45:03,22.5,-16.4,38.9,0.4,2.3,112
2009-10-01 21:50:03,22.5,-16.3,38.8,0.4,2.3,111
2009-10-01 21:55:03,22.3,-16.2,38.5,0.4,2.3,111
2009-10-01 22:00:03,22.2,-16.3,38.5,0.4,2.3,112
2009-10-01 22:05:03,22.2,-16.6,38.8,0.4,2.3,111
2009-10-01 22:10:03,22.1,-16.6,38.8,0.4,2.4,112
2009-10-01 22:15:03,22.2,-16.4,38.5,0.5,2.3,112
2009-10-01 22:20:03,22.1,-16.3,38.4,0.5,2.3,111
2009-10-01 22:25:03,22.1,-16.2,38.3,0.5,2.3,112
2009-10-01 22:30:03,22.1,-16.1,38.3,0.5,2.3,111
2009-10-01 22:35:03,22.2,-15.6,37.9,0.5,2.3,111
2009-10-01 22:40:03,22.3,-15.5,37.8,0.5,2.3,112
2009-10-01 22:45:03,22.4,-15.1,37.4,0.5,2.3,112
2009-10-01 22:50:03,22.3,-14.7,36.9,0.5,2.4,111
2009-10-01 22:55:03,22.1,-14.6,36.7,0.6,2.3,111
2009-10-01 23:00:03,22.2,-15.1,37.3,0.6,2.3,112
2009-10-01 23:05:03,22.3,-15.6,37.9,0.6,2.3,112
2009-10-01 23:10:03,22.3,-16.2,38.4,0.5,2.3,111
2009-10-01 23:15:03,22.2,-16.4,38.6,0.4,2.3,112
2009-10-01 23:20:03,22.2,-16.5,38.7,0.4,2.3,111
2009-10-01 23:25:03,22.0,-16.3,38.4,0.6,2.3,111
2009-10-01 23:30:03,21.9,-16.6,38.5,0.6,2.3,112
2009-10-01 23:35:03,21.8,-16.4,38.3,0.6,2.3,111
2009-10-01 23:40:03,21.8,-16.5,38.3,0.6,2.2,112
2009-10-01 23:45:03,21.7,-16.3,38.0,0.6,2.2,112
2009-10-01 23:50:03,21.7,-16.0,37.8,0.6,2.2,111
2009-10-01 23:55:03,21.6,-16.1,37.8,0.6,2.1,111
